| time (UTC) | temp F | wind direction | speed MPH | gust MPH | rain 1hr in | rain 24hr in | rain mn in | humidity % | barometer mb |
| 20260504201513 | 74 | 16 | 2.0 | 8.0 | 0.00 | 0.00 | 0.00 | 38 | 1007.9 |
| 20260504200043 | 75 | 343 | 1.0 | 6.0 | 0.00 | 0.00 | 0.00 | 39 | 1007.8 |
| 20260504194602 | 74 | 219 | 1.0 | 5.0 | 0.00 | 0.00 | 0.00 | 40 | 1007.9 |
| 20260504193027 | 73 | 172 | 0.0 | 9.0 | 0.00 | 0.00 | 0.00 | 40 | 1007.9 |
| 20260504191558 | 73 | 5 | 2.0 | 6.0 | 0.00 | 0.00 | 0.00 | 39 | 1008.1 |
| 20260504190010 | 73 | 68 | 2.0 | 5.0 | 0.00 | 0.00 | 0.00 | 40 | 1008.1 |
| 20260504184539 | 72 | 194 | 0.0 | 5.0 | 0.00 | 0.00 | 0.00 | 41 | 1008.1 |
| 20260504183004 | 72 | 333 | 2.0 | 5.0 | 0.00 | 0.00 | 0.00 | 44 | 1008.3 |
| 20260504181542 | 72 | 355 | 1.0 | 5.0 | 0.00 | 0.00 | 0.00 | 46 | 1008.3 |
| 20260504174518 | 70 | 341 | 3.0 | 10.0 | 0.00 | 0.00 | 0.00 | 42 | 1008.4 |
| 20260504173046 | 70 | 250 | 0.0 | 4.0 | 0.00 | 0.00 | 0.00 | 48 | 1008.5 |
| 20260504171511 | 69 | 245 | 0.0 | 4.0 | 0.00 | 0.00 | 0.00 | 43 | 1008.4 |
| 20260504150112 | 49 | 184 | 0.0 | 0.0 | 0.00 | 0.00 | 0.00 | 96 | 1008.9 |
| 20260504090104 | 42 | 178 | 0.0 | 0.0 | 0.00 | 0.00 | 0.00 | 90 | 1007.5 |
| 20260504081506 | 44 | 178 | 0.0 | 0.0 | 0.00 | 0.00 | 0.00 | 88 | 1007.5 |
| 20260504044604 | 52 | 178 | 0.0 | 0.0 | 0.00 | 0.00 | 0.00 | 79 | 1007.0 |
| 20260504043024 | 54 | 178 | 0.0 | 0.0 | 0.00 | 0.00 | 0.00 | 77 | 1007.0 |
| 20260504041553 | 55 | 178 | 0.0 | 0.0 | 0.00 | 0.00 | 0.00 | 75 | 1006.9 |
| 20260504040007 | 56 | 178 | 0.0 | 0.0 | 0.00 | 0.00 | 0.00 | 73 | 1006.8 |
| 20260504034543 | 58 | 178 | 0.0 | 0.0 | 0.00 | 0.00 | 0.00 | 70 | 1006.5 |
| 20260504033002 | 60 | 178 | 0.0 | 0.0 | 0.00 | 0.00 | 0.00 | 66 | 1006.5 |
| 20260504031532 | 62 | 178 | 0.0 | 0.0 | 0.00 | 0.00 | 0.00 | 63 | 1006.4 |
| 20260504030122 | 64 | 178 | 0.0 | 0.0 | 0.00 | 0.00 | 0.00 | 59 | 1006.4 |
| 20260504024515 | 66 | 180 | 0.0 | 0.0 | 0.00 | 0.00 | 0.00 | 55 | 1006.4 |
| 20260504023045 | 70 | 179 | 0.0 | 0.0 | 0.00 | 0.00 | 0.00 | 53 | 1006.3 |
| 20260504021511 | 73 | 175 | 0.0 | 0.0 | 0.00 | 0.00 | 0.00 | 47 | 1006.5 |
| 20260504020037 | 75 | 155 | 0.0 | 0.0 | 0.00 | 0.00 | 0.00 | 41 | 1006.5 |
| 20260504014603 | 77 | 171 | 0.0 | 0.0 | 0.00 | 0.00 | 0.00 | 35 | 1006.6 |
| 20260504013028 | 78 | 192 | 0.0 | 1.0 | 0.00 | 0.00 | 0.00 | 33 | 1006.8 |
| 20260504011548 | 79 | 165 | 0.0 | 1.0 | 0.00 | 0.00 | 0.00 | 30 | 1006.9 |
| 20260504010005 | 80 | 217 | 0.0 | 0.0 | 0.00 | 0.00 | 0.00 | 32 | 1007.1 |
| 20260504004533 | 80 | 219 | 0.0 | 5.0 | 0.00 | 0.00 | 0.00 | 30 | 1007.2 |
| 20260504003105 | 80 | 222 | 0.0 | 3.0 | 0.00 | 0.00 | 0.00 | 30 | 1007.3 |
| 20260504001527 | 80 | 219 | 0.0 | 1.0 | 0.00 | 0.00 | 0.00 | 30 | 1007.5 |
| 20260504000058 | 80 | 207 | 0.0 | 6.0 | 0.00 | 0.00 | 0.00 | 28 | 1007.6 |
| 20260503234511 | 80 | 153 | 0.0 | 6.0 | 0.00 | 0.00 | 0.00 | 30 | 1007.6 |
| 20260503233040 | 81 | 58 | 0.0 | 0.0 | 0.00 | 0.00 | 0.00 | 31 | 1007.8 |
| 20260503231506 | 80 | 78 | 0.0 | 0.0 | 0.00 | 0.00 | 0.00 | 28 | 1007.9 |
| 20260503230034 | 80 | 341 | 0.0 | 5.0 | 0.00 | 0.00 | 0.00 | 31 | 1008.2 |
| 20260503224553 | 80 | 338 | 0.0 | 3.0 | 0.00 | 0.00 | 0.00 | 26 | 1008.3 |
| 20260503223020 | 80 | 169 | 0.0 | 5.0 | 0.00 | 0.00 | 0.00 | 28 | 1008.5 |
| 20260503221547 | 80 | 106 | 0.0 | 1.0 | 0.00 | 0.00 | 0.00 | 29 | 1008.8 |
| 20260503220001 | 80 | 80 | 0.0 | 5.0 | 0.00 | 0.00 | 0.00 | 31 | 1009.0 |
| 20260503214531 | 79 | 109 | 0.0 | 4.0 | 0.00 | 0.00 | 0.00 | 30 | 1009.3 |
| 20260503213058 | 78 | 207 | 2.0 | 5.0 | 0.00 | 0.00 | 0.00 | 28 | 1009.5 |
| 20260503211532 | 78 | 15 | 0.0 | 4.0 | 0.00 | 0.00 | 0.00 | 32 | 1009.6 |
| 20260503210051 | 78 | 85 | 0.0 | 6.0 | 0.00 | 0.00 | 0.00 | 33 | 1010.0 |
| 20260503204506 | 77 | 296 | 0.0 | 4.0 | 0.00 | 0.00 | 0.00 | 30 | 1010.3 |
| 20260503203035 | 76 | 355 | 0.0 | 8.0 | 0.00 | 0.00 | 0.00 | 32 | 1010.4 |